Location: Brno
(49.2000°N, 16.6330°E)
Time: 07:43:02
(UTC+02:00)

Meteor 1-4 Rocket - Visible Passes

Search period start: 27 May 2015 00:00
Search period end: 06 June 2015 00:00
Orbit: 461 x 523 km, 81.2° (Epoch: 26 May)

Date Brightness Start Highest point End Pass type
(mag) Time Alt. Az. Time Alt. Az. Time Alt. Az.
27 May 5.9 22:15:17 10° W 22:17:09 13° WNW 22:18:52 10° NW visible
28 May 5.7 21:51:58 10° WSW 21:54:35 17° WNW 21:57:05 10° NNW visible
29 May 5.4 21:28:58 10° WSW 21:32:03 23° WNW 21:35:03 10° NNW visible
